Regional Weather Roundup
Issued by NWS

Home | Current Version | Previous Version | Graphics & Text | Print | Product List | Glossary On
Versions: 1 2 3 4 5 6 7 8 9 10 11 12 13 14 15 16 17 18 19 20 21 22 23 24 25 26 27 28 29 30 31 32 33 34 35 36 37 38 39 40 41 42 43 44 45 46 47 48 49 50
000
ASUS43 KOAX 011902
RWRNE

WEATHER ROUNDUP FOR NEBRASKA
NATIONAL WEATHER SERVICE OMAHA NE
200 PM CDT MON SEP 01 2014

NOTES: SATELLITE DATA IS BEING USED TO AUGMENT CLOUD COVER ABOVE
       12000 FEET.
       "FAIR" INDICATES FEW OR NO CLOUDS BELOW 12,000 FEET WITH NO
       SIGNIFICANT WEATHER AND/OR OBSTRUCTIONS TO VISIBILITY.

  * THESE STATIONS DO NOT REPORT WEATHER SUCH AS RAIN...SNOW OR FOG.

NEZ001>004-019>022-054>056-012000-
NEBRASKA PANHANDLE

CITY           SKY/WX    TMP DP  RH WIND       PRES   REMARKS
SCOTTSBLUFF    SUNNY     76  40  27 W14G23    29.95F
ALLIANCE       SUNNY     73  44  35 SW9       29.96F
CHADRON        MOSUNNY   75  48  38 W9        29.91F
KIMBALL        MOSUNNY   73  41  31 SW9G25    30.01F
SIDNEY         MOSUNNY   74  47  38 SW12      30.02F
$$

NEZ057>060-069>072-079>082-012000-
SOUTHWEST NEBRASKA

CITY           SKY/WX    TMP DP  RH WIND       PRES   REMARKS
NORTH PLATTE   MOSUNNY   75  52  44 W7        29.96F
IMPERIAL       CLOUDY    71  52  50 N5        30.00F
LEXINGTON      PTSUNNY   71  56  58 SW9       29.98R
MCCOOK         PTSUNNY   75  54  47 NW9       29.98F
OGALLALA       MOSUNNY   71  50  48 S9        29.98F
$$

NEZ005>010-023>029-035>040-094-012000-
NORTH CENTRAL NEBRASKA

CITY           SKY/WX    TMP DP  RH WIND       PRES   REMARKS
VALENTINE      SUNNY     75  46  35 VRB3      29.92F
AINSWORTH      SUNNY     74  49  41 W7        29.92F
BROKEN BOW     MOSUNNY   75  54  47 VRB3      29.94F
O`NEILL        SUNNY     76  54  44 W8        29.91S
ORD            MOSUNNY   76  52  43 VRB3      29.91S
THEDFORD       MOSUNNY   75  51  42 SW6       29.95F
$$

NEZ041-046>049-061>064-073>077-083>087-012000-
SOUTH CENTRAL NEBRASKA

CITY           SKY/WX    TMP DP  RH WIND       PRES   REMARKS
GRAND ISLAND   MOSUNNY   77  55  46 W5        29.93S
AURORA         MOSUNNY   75  58  55 NW5       29.92F
HASTINGS       MOSUNNY   75  54  47 NW10      29.93F
HEBRON         PTSUNNY   72  58  62 SW3       29.93F
HOLDREGE       CLOUDY    70  55  57 CALM      29.96S
KEARNEY *      PTSUNNY   72  55  56 W7        29.96S
$$

NEZ011>018-030>034-042>045-012000-
NORTHEAST NEBRASKA

CITY           SKY/WX    TMP DP  RH WIND       PRES   REMARKS
NORFOLK        MOSUNNY   77  59  53 CALM      29.89S
ALBION         MOSUNNY   77  53  43 CALM      29.90S
BLAIR          MOSUNNY   75  62  64 W8        29.88S
FREMONT        SUNNY     78  61  55 NW8       29.89S
TEKAMAH        SUNNY     76  60  57 SW3       29.87F
WAYNE          MOSUNNY   76  61  59 NW3       29.88S
$$

NEZ050>053-065>068-078-088>093-012000-
SOUTHEAST NEBRASKA

CITY           SKY/WX    TMP DP  RH WIND       PRES   REMARKS
LINCOLN        PTSUNNY   79  60  52 NW12      29.90S
OMAHA EPPLEY   MOSUNNY   78  61  55 W7G17     29.87F
BEATRICE       CLOUDY    73  62  70 SW5       29.91S
FALLS CITY     CLOUDY    80  61  52 W7        29.89F
NEBRASKA CITY  MOSUNNY   75  61  61 W3        29.89S
PLATTSMOUTH    SUNNY     77  61  56 NW7       29.88S
$$

NEZ044-045-051>053-067-012000-
OMAHA AREA

CITY           SKY/WX    TMP DP  RH WIND       PRES   REMARKS
OMAHA EPPLEY   MOSUNNY   78  61  55 W7G17     29.87F
BLAIR          MOSUNNY   75  62  64 W8        29.88S
FREMONT        SUNNY     78  61  55 NW8       29.89S
MILLARD        MOSUNNY   77  62  60 NW8G16    29.87S
OFFUTT AFB     SUNNY     77  65  65 NW5       29.87S
PLATTSMOUTH    SUNNY     77  61  56 NW7       29.88S
WAHOO          FAIR      77  60  55 NW6       29.88S
$$



USA.gov is the U.S. government's official web portal to all federal, state and local government web resources and services.